Home > Weather > Nagano > Past weeks

Flag for Japan Past Weather in Nagano, Japan — Yesterday and Last 2 Weeks

Now
74 °F

Mild.


Feels Like: 75 °F
Forecast: 70 / 82 °F
Wind: 6 mph from West

Location: Nagano

Current Time: Jul 25, 2016 at 9:04:57 PM

Latest Report: Jul 25, 2016 at 8:00 PM


Visibility: N/A

Pressure: 29.91 "Hg

Humidity: 79%

Dew Point: 68 °F

Location of NaganoLocation

Past Weather in Nagano — Graph

°F

Nagano Temperature Yesterday

Maximum temperature yesterday: 89 °F (at 2:00 PM)
Minimum temperature yesterday: 69 °F (at 6:00 AM)
Average temperature yesterday: 77 °F

High & Low Weather Summary for the Past Weeks

 TemperatureHumidityPressure
High91 °F (Jul 12, 1:00 PM)99% (Jul 13, 9:00 AM)29.96 "Hg (Jul 13, 9:00 AM)
Low65 °F (Jul 12, 5:00 AM)39% (Jul 12, 1:00 PM)29.35 "Hg (Jul 14, 12:00 PM)
Average76 °F74%29.74 "Hg
* Reported Jul 10 8:00 PM — Jul 25 8:00 PM, Nagano, Weather by CustomWeather, © 2016

Note: Actual official high and low records may vary slightly from our data, if they occured in-between our weather recording intervals... More about our weather records

Advertising

Nagano Weather History for the Previous 24 Hours

Scroll right to see more
 ConditionsComfort  
Time TempWeatherWind HumidityBarometerVisibility
8:00 PM
Mon, Jul 25
74 °FMild.6 mph79%29.91 "HgN/A
7:00 PM76 °FMild.9 mph72%29.89 "HgN/A
6:00 PM77 °FWarm.3 mph73%29.88 "HgN/A
5:00 PM79 °FWarm.5 mph69%29.85 "HgN/A
4:00 PM81 °FWarm.6 mph63%29.85 "HgN/A
3:00 PM81 °FOvercast.7 mph63%29.84 "Hg9 mi
2:00 PM83 °FWarm.7 mph59%29.84 "HgN/A
1:00 PM82 °FWarm.9 mph61%29.85 "HgN/A
12:00 PM81 °FWarm.7 mph61%29.87 "HgN/A
11:00 AM80 °FWarm.5 mph60%29.88 "HgN/A
10:00 AM81 °FWarm.3 mph58%29.89 "HgN/A
9:00 AM81 °FOvercast.3 mph59%29.90 "Hg6 mi
8:00 AM76 °FMild.7 mph66%29.93 "HgN/A
7:00 AM74 °FMild.6 mph71%29.95 "HgN/A
6:00 AM73 °FMild.6 mph73%29.95 "HgN/A
5:00 AM72 °FMild.6 mph73%29.95 "HgN/A
4:00 AM73 °FMild.8 mph70%29.93 "HgN/A
3:00 AM73 °FOvercast.8 mph69%29.93 "Hg12 mi
2:00 AM74 °FMild.6 mph67%29.94 "HgN/A
1:00 AM74 °FMild.6 mph65%29.93 "HgN/A
12:00 AM75 °FMild.7 mph64%29.94 "HgN/A
11:00 PM
Sun, Jul 24
75 °FMild.7 mph67%29.94 "HgN/A
10:00 PM76 °FMild.8 mph67%29.93 "HgN/A
9:00 PM76 °FOvercast.6 mph67%29.93 "Hg12 mi
Weather by CustomWeather, © 2016

See weather overviewHow to use our weather pages